Dasher, Georgia
Current Conditions -  °F | °C
As of 6:53 AM on Friday 24 Oct 2014 (Local Time) from KVLD Reporting Station
Clear Clear  
Wind Chill: 46°   Ceiling: Unl
Heat Index: 46°   Visibility: 7mi
Dew Point: 43°   Wind: 0mph
Humidity: 89%   Direction: NA
Pressure: 30.03"   Gusts: NA
Location:  30.7579°N, 83.3062°W
Report Text: KVLD 241053Z 00000KT 7SM CLR 08/06 A3003 RMK AO2 SLP176 T00780061
Loading
Personal Weather Stations






























Interactive Weather Map
Tropical Storm Tracking
New forecast layout! Learn more

10-Day Weather Forecast

Advertisements
Track Severe Weather on mobile